Location: Orangeville
(43.9200°N, 80.0943°W)
Time: 11:02:21
(UTC-05:00)

Tiangong - Pass Details

Date: 14 December 2021
Orbit: 383 x 386 km, 41.5° (Epoch: 19 January)

Event Time Altitude Azimuth Distance (km) Brightness Sun altitude
Rises 17:13:56 0° 252° (WSW) 2,276 7.3 -5.7°
Reaches altitude 10° 17:16:03 10° 246° (WSW) 1,420 5.8 -6.0°
Maximum altitude 17:19:09 48° 171° (S) 520 1.9 -6.5°
Drops below altitude 10° 17:22:15 10° 96° (E) 1,417 3.4 -7.0°
Enters shadow 17:22:54 - 94° (E) 1,675 3.8 -7.1°
